Regional Weather Roundup
Issued by NWS

Home | Current Version | Previous Version | Graphics & Text | Print | Product List | Glossary On
Versions: 1 2 3 4 5 6 7 8 9 10 11 12 13 14 15 16 17 18 19 20 21 22 23 24 25 26 27 28 29 30 31 32 33 34 35 36 37 38 39 40 41 42 43 44 45 46 47 48 49 50
307
ASUS45 KSLC 070110
RWRUT

UTAH REGIONAL WEATHER ROUNDUP
NATIONAL WEATHER SERVICE SALT LAKE CITY UT
600 PM MST SAT FEB 06 2016

UTZ001>011-023>025-070200-

NORTHERN UTAH

CITY           SKY/WX    TMP DP  RH WIND       PRES   REMARKS
BRIGHAM CITY   MOCLDY    26  21  80 CALM      30.47S
HILL AFB       MOCLDY    33  16  50 CALM      30.43F
LOGAN          MOCLDY    27  21  78 CALM      30.45R
OGDEN          MOCLDY    28  24  85 NW5       30.44S FOG     WCI  23
PROVO AIRPORT  MOCLDY    25  18  74 CALM      30.46
SALT LAKE CITY MOCLDY    32  25  75 NW3       30.45S
VERNAL         CLOUDY    16   9  74 SE3       30.43S
WENDOVER       MOCLDY    34  25  69 CALM      30.45S
HEBER CITY     MOCLDY    18  10  73 CALM      30.40F
WEST JORDAN    CLEAR     30  21  69 CALM      30.45R

$$

UTZ012>022-026-027-070200-

SOUTHERN/CENTRAL UTAH

CITY           SKY/WX    TMP DP  RH WIND       PRES   REMARKS
BLANDING       PTCLDY    31  22  67 CALM      30.48R
BRYCE CANYON   PTCLDY    16  10  77 S3        30.39F
CEDAR CITY     PTCLDY    27  20  75 E6        30.40R WCI  20
DELTA          MOCLDY    16  14  92 S7        30.46S WCI   7
HANKSVILLE     CLOUDY    21  18  86 CALM      30.54S
MILFORD        MOCLDY    13   9  84 N8        30.44S WCI   2
MOAB/CYNLANDS  MOCLDY    14  12  92 N8        30.50S WCI   3
PRICE          MOCLDY    23  14  68 CALM      30.42F
ST GEORGE      MOCLDY    52  25  35 SW7       30.37S
KANAB          CLEAR     39  27  60 NE9       30.41S WCI  33

$$

REGIONAL REPORTS     COLORADO/ARIZONA

CITY           SKY/WX    TMP DP  RH WIND       PRES   REMARKS
CRAIG, CO      CLOUDY    12   7  80 CALM      30.38F
GRAND JUNCTION CLOUDY    15  11  83 N3        30.48F
RIFLE          CLOUDY    18   8  65 SE5       30.44S WCI  11
MONTROSE       CLOUDY    24  13  62 CALM      30.45R
CORTEZ         CLOUDY    30  19  63 W7        30.39S WCI  23
PAGE, AZ       CLEAR     36  23  59 NE7       30.42F WCI  30
GRAND CANYON   PTCLDY    39  15  37 NE5       30.39S
KINGMAN        PTCLDY    53  21  28 NE7       30.30S
FLAGSTAFF      PTCLDY    35  17  47 E10       30.40R WCI  27

$$

REGIONAL REPORTS    NEVADA/IDAHO/WYOMING

CITY           SKY/WX    TMP DP  RH WIND       PRES   REMARKS
LAS VEGAS, NV  PTCLDY    60  22  23 CALM      30.29S
ELY            MOCLDY    24  18  77 SE8       30.41S WCI  15
ELKO           MOCLDY    25  15  66 NE5       30.46S WCI  19
POCATELLO, ID  CLOUDY    35  24  64 S17       30.37S WCI  25
BURLEY         PTCLDY    38  27  64 SW9       30.37S WCI  31
EVANSTON, WY   CLOUDY    27  13  55 SW3       30.38R
ROCK SPRINGS   CLOUDY    30  18  60 W35G48    30.27R WCI  14

$$




USA.gov is the U.S. government's official web portal to all federal, state and local government web resources and services.